Regional Weather Roundup
Issued by NWS

Home | Current Version | Previous Version | Graphics & Text | Print | Product List | Glossary On
Versions: 1 2 3 4 5 6 7 8 9 10 11 12 13 14 15 16 17 18 19 20 21 22 23 24 25 26 27 28 29 30 31 32 33 34 35 36 37 38 39 40 41 42 43 44 45 46 47 48 49 50
000
ASUS43 KDMX 270908
RWRIA

WEATHER ROUNDUP FOR IOWA
NATIONAL WEATHER SERVICE DES MOINES IA
400 AM CDT SAT AUG 27 2016

NOTE: "FAIR" INDICATES FEW OR NO CLOUDS BELOW 12,000 FEET WITH NO
SIGNIFICANT WEATHER AND/OR OBSTRUCTIONS TO VISIBILITY.

* - THESE STATIONS ARE NOT NWS STATIONS...THUS NOT UNDER NWS
QUALITY CONTROL.  THEY ALSO DO NOT REPORT WEATHER SUCH
AS PRECIPITATION OR FOG.

IAZ001>003-012>014-020>022-031>034-043>046-271000-
   NORTHWEST IOWA

CITY           SKY/WX    TMP DP  RH WIND       PRES   REMARKS
CARROLL *      CLOUDY    63  63 100 CALM      30.01F
CHEROKEE *     CLOUDY    62  61  97 SE5       30.02S
DENISON *      FOG       63  63 100 VRB5      30.00F VSB 1
LE MARS *      CLOUDY    63  59  88 SE6       30.02F
ORANGE CITY *  CLOUDY    63  59  88 CALM      30.02F
SHELDON *      CLOUDY    61  61 100 E3        30.01F
SIOUX CITY     CLOUDY    65  61  87 SE9       30.00S
SPENCER        LGT RAIN  61  58  90 SE5       30.03F
STORM LAKE *   CLOUDY    59  59 100 SE6       30.03S
$$

IAZ055>058-069>071-079>083-090>094-271000-
   SOUTHWEST IOWA

CITY           SKY/WX    TMP DP  RH WIND       PRES   REMARKS
ATLANTIC *     CLOUDY    64  64 100 E5        30.00F FOG
AUDUBON *      FOG       63  61  94 E5        30.02F VSB 1/2
CLARINDA *     FOG       68  68 100 MISG      30.01F VSB 1/2
COUNCIL BLFS * FOG       64  64 100 CALM      30.00R VSB 1/4
CRESTON *      FOG       64  64 100 NE6       30.01F VSB 1/2
HARLAN  *      FOG       64  64 100 E5        30.03F VSB 1/2
LAMONI         FOG       67  67 100 N3        30.00S VSB 1/2
RED OAK *      CLOUDY    66  66 100 VRB5      29.99F FOG
SHENANDOAH *   FOG       66 N/A N/A SE5       29.99F VSB 1/4
$$

IAZ047>049-059>061-072>074-084-271000-
   CENTRAL IOWA

CITY           SKY/WX    TMP DP  RH WIND       PRES   REMARKS
AMES           CLOUDY    60  60 100 N3        30.01F
ANKENY *         N/A    N/A N/A N/A MISG        N/A
BOONE *        CLOUDY    61  59  94 E7        30.01S
CHARITON *       N/A     68  68 100 MISG      29.99R FOG
DES MOINES     LGT RAIN  65  62  90 NW3       30.00R FOG
GRINNELL*      CLOUDY    62  60  94 E8        30.00F
KNOXVILLE *    CLOUDY    66  64  94 E3        29.98S FOG
MARSHALLTOWN   CLOUDY    62  62 100 E9        29.99F
NEWTON *       CLOUDY    63  63 100 NE9       29.98F
PELLA *        CLOUDY    65  64  96 E3        29.99F
PERRY *        CLOUDY    63  63  99 CALM      30.01F
$$

IAZ004>006-015-016-023>025-035-036-271000-
   NORTH CENTRAL IOWA

CITY           SKY/WX    TMP DP  RH WIND       PRES   REMARKS
ALGONA *       CLOUDY    61  59  94 E5        30.03F
ESTHERVILLE    CLOUDY    60  59  96 SE6       30.03F
FORT DODGE *   CLOUDY    61  57  88 E7        30.02F
MASON CITY     CLOUDY    61  58  90 E9        30.05F
FOREST CITY *    N/A    N/A N/A N/A MISG        N/A
WEBSTER CITY * CLOUDY    61  61 100 E7        30.00F
IOWA FALLS *   MOCLDY    61  58  91 NE6       30.04F
$$

IAZ007>011-017>019-026>030-037>042-050>054-066-271000-
   NORTHEAST IOWA

CITY           SKY/WX    TMP DP  RH WIND       PRES   REMARKS
CEDAR RAPIDS   CLOUDY    64  64 100 NE9       30.01F
CHARLES CITY * CLOUDY    61  61 100 NE7       30.05F
CLINTON *      CLOUDY    69  68  96 SE8       30.03F FOG
DECORAH *      CLOUDY    59  59 100 NE6       30.06F
DUBUQUE        CLOUDY    63  62  97 NE9       30.05F
MONTICELLO *   HVY RAIN  64  63  94 NE7       30.04R
OELWEIN *      CLOUDY    61  61 100 E8        30.04R
WATERLOO       LGT RAIN  61  59  93 E8        30.01F
$$

IAZ064-065-067-068-078-271000-
   EAST CENTRAL IOWA

CITY           SKY/WX    TMP DP  RH WIND       PRES   REMARKS
DAVENPORT      LGT RAIN  69  68  96 SE7       30.02S
IOWA CITY      LGT RAIN  67  65  93 NE6       30.02S
MT. PLEASANT * CLOUDY    71  71 100 S3        30.00S
MUSCATINE *    MOCLDY    72  70  94 SE7       29.99S
QUAD CITIES    LGT RAIN  71  68  90 SE9       30.01F
$$

IAZ062-063-075>077-085>089-095>099-271000-
   SOUTHEAST IOWA

CITY           SKY/WX    TMP DP  RH WIND       PRES   REMARKS
BURLINGTON     CLOUDY    70  70 100 SE7       29.98F
FAIRFIELD *    CLOUDY    70  68  94 SE5       29.98F
FORT MADISON * CLOUDY    68  68 100 SE3       30.01F
KEOKUK *       PTCLDY    70  68  94 SE3       30.00R
OSKALOOSA *      N/A     64  64  97 CALM      29.99S FOG
CENTERVILLE *  CLOUDY    66  66 100 CALM      30.01S
OTTUMWA        PTCLDY    66  64  93 SE6       29.98F
WASHINGTON *   CLOUDY    70  70 100 CALM      30.01R
$$

ABBREVIATIONS USED IN REMARKS
   TC - TEMPERATURES IN CELSIUS
  WCI - WIND CHILL INDEX
   HX - HEAT INDEX
  VSB - VISIBILITY
$$




USA.gov is the U.S. government's official web portal to all federal, state and local government web resources and services.